Location: Adavinekkalam
(16.6301°N, 80.7229°E)
Time: 11:23:17
(UTC+00:00)

Meteor 2-13 Rocket - Pass Details

Date: 15 May 2026
Orbit: 935 x 958 km, 82.5° (Epoch: 8 June)

Event Time Altitude Azimuth Distance (km) Brightness Sun altitude
Exits shadow 22:37:13 28° 205° (SSW) 1,705 5.3 -20.3°
Maximum altitude 22:40:28 61° 275° (W) 1,072 4.4 -19.6°
Drops below altitude 10° 22:46:32 10° 355° (N) 2,682 7.1 -18.3°
Sets 22:49:04 0° 359° (N) 3,630 7.8 -17.8°
